Location: Highland Meadows Observing Site
(48.4428°N, 114.5461°W)
Time: 03:55:26
(UTC-07:00)

Gurwin Techsat 1B - Visible Passes

Search period start: 13 February 2016 00:00
Search period end: 23 February 2016 00:00
Orbit: 812 x 814 km, 98.6° (Epoch: 12 February)

Date Brightness Start Highest point End Pass type
(mag) Time Alt. Az. Time Alt. Az. Time Alt. Az.
14 Feb 11.3 04:03:46 10° N 04:03:47 10° N 04:03:47 10° N visible
15 Feb 11.4 03:40:46 10° N 03:40:50 10° N 03:40:50 10° N visible
17 Feb 11.1 04:35:59 10° N 04:36:10 11° NNW 04:36:10 11° NNW visible
18 Feb 11.1 04:12:47 10° N 04:13:13 12° N 04:13:13 12° N visible
19 Feb 11.1 03:49:44 10° N 03:50:17 13° N 03:50:17 13° N visible
20 Feb 11.2 03:26:49 10° N 03:27:21 13° N 03:27:21 13° N visible
21 Feb 11.4 03:04:01 10° NNE 03:04:24 12° NNE 03:04:24 12° NNE visible
21 Feb 10.9 04:45:07 10° NNW 04:45:37 12° NNW 04:45:37 12° NNW visible
22 Feb 11.5 02:41:19 10° NNE 02:41:28 11° NNE 02:41:28 11° NNE visible
22 Feb 10.9 04:21:49 10° N 04:22:41 14° NNW 04:22:41 14° NNW visible
